Location: Columbia
(38.9520°N, 92.3340°W)
Time: 23:17:22
(UTC-05:00)

SJ-11-01 - Visible Passes

Search period start: 01 September 2014 00:00
Search period end: 11 September 2014 00:00
Orbit: 685 x 700 km, 98.0° (Epoch: 01 September)

Date Brightness Start Highest point End Pass type
(mag) Time Alt. Az. Time Alt. Az. Time Alt. Az.
01 Sep 4.7 20:48:58 18° SE 20:52:05 43° ENE 20:56:34 10° N visible
01 Sep 6.6 22:27:40 14° SW 22:29:49 18° W 22:33:04 10° NW visible
02 Sep 4.4 21:29:19 29° S 21:31:45 73° WSW 21:36:30 10° NNW visible
03 Sep 5.3 20:30:59 14° ESE 20:34:10 29° ENE 20:38:12 10° N visible
03 Sep 6.1 22:09:41 21° SW 22:11:39 28° W 22:15:42 10° NW visible
04 Sep 4.2 21:11:21 29° SSE 21:13:44 73° ENE 21:18:28 10° N visible
04 Sep 7.1 22:51:04 10° W 22:51:46 10° W 22:52:28 10° W visible
05 Sep 5.8 20:13:01 10° ESE 20:16:18 19° ENE 20:19:38 10° NNE visible
05 Sep 5.3 21:51:42 29° SSW 21:53:31 42° W 21:58:01 10° NNW visible
06 Sep 4.6 20:53:23 25° SE 20:55:45 47° ENE 21:00:17 10° N visible
06 Sep 6.7 22:32:04 15° WSW 22:33:32 17° W 22:36:31 10° NW visible
07 Sep 6.2 19:56:19 10° E 19:58:28 13° ENE 20:00:36 10° NE visible
07 Sep 4.5 21:33:44 38° S 21:35:26 66° WSW 21:40:09 10° NNW visible
08 Sep 5.1 20:35:25 20° ESE 20:37:49 31° ENE 20:41:57 10° N visible
08 Sep 6.1 22:14:06 22° WSW 22:15:21 25° W 22:19:15 10° NW visible
09 Sep 4.2 21:15:46 42° SSE 21:17:24 81° ENE 21:22:08 10° N visible
10 Sep 5.6 20:17:27 14° ESE 20:19:55 21° ENE 20:23:26 10° NNE visible
10 Sep 5.5 21:56:08 34° SW 21:57:12 38° W 22:01:37 10° NNW visible
